#timestamp,LO_Frequency,Hit,StdDev 
1708783215.2,286047003.7,N
1708783235.0,286047003.4,N
1708783235.9,286047003.4,N
1708783255.8,286047004.4,N
1708783275.6,286047002.6,N
1708783295.4,286047004.3,N
1708783315.3,286047001.5,N
1708783335.1,286047003.9,N
1708783355.9,286046999.8,N
1708783375.7,286047000.2,N
1708783395.5,286047000.5,N
1708783415.4,286047002.6,N
1708783435.2,286046999.8,N
1708783455.0,286047001.0,N
1708783455.9,286047001.0,N
1708783475.8,286047001.1,N
1708783495.6,286047001.0,N
1708783515.4,286047000.6,N
1708783535.3,286047001.1,N
1708783555.1,286047000.0,N
1708783575.9,286047002.2,N
1708783595.7,286047001.7,N
1708783615.5,286047003.5,N
1708783635.4,286047003.1,N
1708783655.2,286047003.3,N
1708783675.0,286047005.2,Y
1708783675.9,286047005.2,P
1708783695.8,286047003.9,N
1708783715.6,286047003.7,P
1708783735.5,286047003.8,Y
1708783755.3,286047001.2,P
1708783775.1,286047000.9,N
1708783795.9,286047000.6,N
1708783815.7,286046998.2,N
1708783835.5,286046998.2,N
1708783855.4,286046998.7,N
1708783875.2,286046999.3,N
1708783895.1,286046999.0,N
1708783896.0,286046999.0,N
1708783915.8,286046998.3,N
1708783935.6,286046998.7,N
1708783955.5,286046998.1,N
1708783975.3,286047000.8,N
1708783995.1,286046998.1,N
1708784015.9,286046998.9,N
1708784035.7,286046998.3,N
1708784055.5,286046999.4,N
1708784075.4,286046998.4,N
1708784095.2,286046996.5,N
1708784115.0,286046997.5,N
1708784116.0,286046997.5,N
1708784135.8,286046997.2,N
1708784155.6,286046995.3,Y
1708784175.5,286046996.9,P
1708784195.3,286046999.4,N
1708784215.1,286046999.1,N
1708784235.9,286046999.5,N
1708784255.7,286046997.3,N
1708784275.6,286046995.6,Y
1708784295.4,286046997.4,P
1708784315.2,286046995.3,P
1708784335.1,286046995.1,P
1708784336.0,286046995.1,Y
1708784355.8,286046998.6,P
1708784375.7,286047000.4,N
1708784395.5,286047000.8,N
1708784415.3,286046998.3,N
1708784435.2,286046998.9,N
1708784455.0,286046998.4,N
1708784455.9,286046998.4,N
1708784475.7,286046998.7,N
1708784495.6,286046997.8,N
1708784515.4,286046995.3,Y
1708784535.3,286046997.1,P
1708784555.1,286046997.1,P
1708784556.0,286046997.1,P
1708784575.8,286046996.7,Y
1708784595.7,286047000.5,P
1708784615.5,286047000.8,N
1708784635.4,286047001.2,N
1708784655.2,286046999.6,N
1708784675.0,286046997.3,N
1708784675.9,286046997.3,N
1708784695.8,286046997.6,N
1708784715.6,286046998.0,N
1708784735.4,286046995.6,N
1708784755.3,286046995.9,N
1708784775.1,286046994.0,Y
1708784795.9,286046994.9,P
1708784815.7,286046996.2,N
1708784835.5,286046993.6,P
1708784855.4,286046994.0,Y
1708784875.2,286046997.7,P
1708784895.1,286046995.4,P
1708784896.0,286046995.4,P
1708784915.8,286046995.0,Y
1708784935.6,286047000.6,P
1708784955.5,286047001.2,N
1708784975.3,286046998.5,N
1708784995.2,286046999.4,N
1708785015.9,286046997.4,N
1708785035.7,286046997.1,N
1708785055.6,286046997.6,N
1708785075.4,286046994.9,Y
1708785095.2,286046997.3,P
1708785115.1,286046995.4,P
1708785116.0,286046995.4,P
1708785135.8,286046995.1,Y
1708785155.7,286046999.4,P
1708785175.5,286046998.8,N
1708785195.3,286046999.1,N
1708785215.2,286046997.7,N
1708785235.0,286046996.7,Y
1708785235.9,286046996.7,P
1708785255.8,286046998.2,N
1708785275.6,286046998.9,N
1708785295.4,286046998.8,N
1708785315.3,286046999.3,N
1708785335.1,286046999.2,N
1708785355.8,286046998.9,N
1708785375.7,286046999.5,N
1708785395.5,286046997.0,Y
1708785415.4,286046998.4,P
1708785435.2,286046996.5,P
1708785455.0,286046997.9,N
1708785455.9,286046997.9,N
1708785475.8,286046997.7,Y
1708785495.6,286046999.0,P
1708785515.5,286046999.2,N
1708785535.3,286046997.7,P
1708785555.1,286046995.0,Y
1708785575.9,286046997.2,P
1708785595.7,286046998.0,P
1708785615.6,286046994.9,P
1708785635.4,286046998.0,N
1708785655.2,286046994.9,Y
1708785675.1,286046999.6,P
1708785676.0,286046999.6,N
1708785695.8,286046997.3,N
1708785715.6,286046999.5,N
1708785735.5,286046998.9,N
1708785755.3,286046999.4,N
1708785775.2,286046999.1,N
1708785795.9,286046998.7,N
1708785815.7,286046996.7,Y
1708785835.6,286046998.7,P
1708785855.4,286046996.7,P
1708785875.3,286046997.1,P
1708785895.1,286046998.0,N
1708785896.0,286046998.0,N
1708785915.8,286046995.3,Y
1708785935.7,286046998.1,P
1708785955.5,286046998.5,P
1708785975.3,286047001.0,P
1708785995.2,286046998.6,N
1708786015.0,286047000.9,N
1708786015.9,286047000.9,N
1708786035.8,286046998.7,N
1708786055.6,286046998.4,N
1708786075.4,286046998.7,N
1708786095.3,286046999.2,N
1708786115.1,286047000.8,N
1708786135.9,286046998.2,N
1708786155.7,286046996.6,N
1708786175.5,286046996.6,N
1708786195.4,286046998.9,N
1708786215.2,286046996.6,N
1708786235.0,286046997.4,N
1708786235.9,286046997.4,N
1708786255.8,286046995.1,Y
1708786275.6,286046997.8,P
1708786295.5,286046997.3,P
1708786315.3,286046994.9,P
1708786335.1,286046997.8,N
1708786355.9,286046997.8,N
1708786375.7,286046996.5,Y
1708786395.5,286047000.7,P
1708786415.4,286046998.2,N
1708786435.2,286047001.0,N
1708786455.1,286047000.3,N
1708786456.0,286047000.3,N
1708786475.8,286047002.2,N
1708786495.6,286047002.7,N
1708786515.5,286047000.4,N
1708786535.3,286046999.9,N
1708786555.1,286047002.1,N
1708786575.9,286047002.2,N
1708786595.7,286047000.2,N
1708786615.6,286046999.7,N
1708786635.4,286046999.8,N
1708786655.2,286047002.8,N
1708786675.1,286047001.0,N
1708786676.0,286047001.0,N
1708786695.8,286046998.1,N
1708786715.6,286047001.0,N
1708786735.5,286047001.2,N
1708786755.3,286047001.1,N
1708786775.1,286047000.6,N
1708786795.9,286046998.1,N
